sat.trackr.live / text

‹ back to catalog

HUANJING 1A (HJ-1A)

NORAD 33320 · 2008-041A

PAYLOAD ACTIVE UNKNOWN

§ Identity

Operator
Country
PRC
Launch date
2008-09-06
Launch site
TAISC
Launch vehicle
Mass (kg)
RCS (m²)
1.47

Purposes: earth_obs

External: N2YO · Heavens-Above · Gunter

§ Orbital elements

Epoch: 2026-09-20T05:35:09.220704Z

Period
97.02 min
Inclination
97.6796°
Eccentricity
0.0018554
Mean motion
14.84166398 rev/d
Perigee alt
603.2 km
Apogee alt
629.2 km
Semi-major
6,994.3 km
B*
5.1723e-5
RAAN
245.4581°
Arg perigee
181.7865°
Mean anomaly
178.3287°
Rev number
97,250

§ Raw data

HUANJING 1A (HJ-1A)1 33320U 08041A   26263.23274561  .00000382  00000+0  51723-4 0  99972 33320  97.6796 245.4581 0018554 181.7865 178.3287 14.84166398972504

JSON: /api/v1/satellites/33320 · /tle

For live sub-satellite position, see the globe view (requires WebGL).

§ Visibility from observer

Set your observer location to see the next 7 days of passes ≥ 10°. The values pass through the URL so the page stays shareable.

No JS? Fill the form by hand. The geolocation button needs JavaScript.

§ Radio — SatNOGS DB

ModeDescriptionDownlinkUplink
BPSK Telemetry 2.242 GHz

1 transmitter · refreshed weekly from db.satnogs.org